#timestamp,LO_Frequency,Hit,StdDev 
1622430015.2,286047001.5,N
1622430035.0,286047002.5,N
1622430035.9,286047002.5,N
1622430055.7,286047002.5,N
1622430075.6,286047002.1,N
1622430095.4,286047004.0,N
1622430115.3,286047001.9,N
1622430135.1,286047001.0,N
1622430136.0,286047001.0,N
1622430155.8,286047000.6,N
1622430175.7,286047002.6,N
1622430195.5,286047002.7,N
1622430215.4,286047002.5,N
1622430235.2,286046999.7,N
1622430255.0,286047002.6,N
1622430255.9,286047002.6,N
1622430275.8,286047001.8,N
1622430295.6,286047001.8,N
1622430315.5,286046999.9,N
1622430335.3,286047001.0,N
1622430355.1,286047002.6,N
1622430375.9,286046999.7,N
1622430395.7,286047000.6,N
1622430415.5,286047000.1,N
1622430435.4,286047001.1,N
1622430455.2,286046999.2,N
1622430475.1,286046997.0,N
1622430476.0,286046997.0,N
1622430495.8,286046999.5,N
1622430515.6,286046996.8,N
1622430535.5,286046996.6,N
1622430555.3,286046998.1,N
1622430575.1,286047000.5,N
1622430595.9,286047000.4,N
1622430615.7,286047000.3,N
1622430635.6,286047002.7,N
1622430655.4,286047000.2,N
1622430675.2,286047000.5,N
1622430695.1,286046999.3,N
1622430696.0,286046999.3,N
1622430715.8,286046998.2,N
1622430735.7,286046996.6,N
1622430755.5,286046998.2,N
1622430775.3,286047000.6,N
1622430795.2,286047000.7,N
1622430815.0,286046999.9,N
1622430815.9,286046999.9,N
1622430835.7,286046998.2,N
1622430855.6,286046999.0,N
1622430875.4,286046998.2,N
1622430895.3,286046997.1,N
1622430915.1,286046999.5,N
1622430916.0,286046999.5,N
1622430935.8,286046998.5,N
1622430955.7,286047002.8,N
1622430975.5,286046999.8,N
1622430995.3,286046998.1,N
1622431015.2,286047001.2,N
1622431035.0,286046998.1,N
1622431035.9,286046998.1,N
1622431055.8,286047000.0,N
1622431075.6,286046999.9,N
1622431095.4,286047000.3,N
1622431115.3,286047000.9,N
1622431135.1,286046998.9,N
1622431155.9,286046998.5,N
1622431175.7,286046998.5,N
1622431195.5,286047000.2,N
1622431215.4,286047000.1,N
1622431235.2,286046999.9,N
1622431255.0,286047000.6,N
1622431255.9,286047000.6,N
1622431275.8,286047000.7,N
1622431295.6,286047001.1,N
1622431315.5,286047000.5,N
1622431335.3,286047000.6,N
1622431355.1,286047000.7,N
1622431375.9,286046998.8,N
1622431395.7,286046998.5,N
1622431415.6,286047000.7,N
1622431435.4,286046999.9,N
1622431455.2,286047001.7,N
1622431475.1,286047004.0,Y
1622431476.0,286047004.0,P
1622431495.8,286047003.1,N
1622431515.7,286047003.4,N
1622431535.5,286047004.0,N
1622431555.3,286047004.3,N
1622431575.2,286047002.1,N
1622431595.0,286047002.7,N
1622431595.9,286047002.7,N
1622431615.7,286047002.3,N
1622431635.6,286047001.7,N
1622431655.4,286047001.9,N
1622431675.3,286047001.9,N
1622431695.1,286047000.1,N
1622431696.0,286047000.1,N
1622431715.8,286046998.2,N
1622431735.7,286047000.5,N
1622431755.5,286047001.0,N
1622431775.3,286047001.1,N
1622431795.2,286047002.1,N
1622431815.0,286047002.0,N
1622431815.9,286047002.0,N
1622431835.8,286047000.3,N
1622431855.6,286047001.3,N
1622431875.4,286047003.9,N
1622431895.3,286047002.1,N
1622431915.1,286047001.3,N
1622431935.8,286047003.4,N
1622431955.7,286047004.4,Y
1622431975.5,286046999.9,P
1622431995.4,286047000.5,N
1622432015.2,286046998.6,N
1622432035.0,286047000.4,N
1622432035.9,286047000.4,N
1622432055.8,286046999.8,N
1622432075.6,286047000.6,N
1622432095.5,286046998.4,N
1622432115.3,286046998.5,N
1622432135.1,286046998.8,N
1622432155.9,286046998.5,N
1622432175.7,286047000.2,N
1622432195.5,286047002.6,N
1622432215.4,286047005.5,Y
1622432235.2,286047005.4,P
1622432255.1,286047006.0,N
1622432256.0,286047006.0,N
1622432275.8,286047003.2,N
1622432295.6,286047003.3,N
1622432315.5,286047001.9,N
1622432335.3,286047000.9,N
1622432355.2,286046999.3,N
1622432375.9,286046999.2,N
1622432395.7,286046998.2,N
1622432415.6,286046998.4,N
1622432435.4,286046999.2,N
1622432455.2,286046998.9,N
1622432475.1,286046998.7,N
1622432476.0,286046998.7,N
1622432495.8,286046999.9,N
1622432515.7,286047000.3,N
1622432535.5,286047002.8,N
1622432555.3,286047000.3,N
1622432575.2,286046999.8,N
1622432595.0,286047002.2,N
1622432595.9,286047002.2,N
1622432615.8,286047000.4,N
1622432635.6,286046998.2,N
1622432655.4,286047000.5,N
1622432675.3,286047002.6,N
1622432695.1,286047002.8,N
1622432715.9,286047002.8,N
1622432735.7,286047002.6,N
1622432755.5,286047000.5,N
1622432775.4,286047000.0,N
1622432795.2,286046998.5,N
1622432815.1,286046999.3,N
1622432816.0,286046999.3,N
1622432835.8,286046999.6,N
1622432855.6,286046998.2,N
1622432875.5,286046998.9,N
1622432895.3,286046998.9,N
1622432915.2,286046996.6,N
1622432935.9,286046996.7,N
1622432955.7,286046999.5,N
1622432975.6,286046999.0,N
1622432995.4,286047001.0,N
1622433015.3,286046998.5,N
1622433035.1,286046998.8,N
1622433036.0,286046998.8,N
1622433055.8,286047000.0,N
1622433075.7,286047002.8,N
1622433095.5,286047000.6,N
1622433115.4,286047000.0,N
1622433135.2,286047000.0,N
1622433155.0,286047000.8,N
1622433155.9,286047000.8,N
1622433175.8,286046998.5,N
1622433195.6,286046996.5,N
1622433215.4,286046997.1,N
1622433235.3,286046997.0,N
1622433255.1,286046998.9,N
1622433275.9,286046998.3,N
1622433295.7,286046998.6,N
1622433315.5,286047000.6,N
1622433335.4,286047000.9,N
1622433355.2,286046998.5,N
1622433375.1,286046998.2,N
1622433376.0,286046998.2,N
1622433395.8,286046998.6,N
1622433415.6,286046999.2,N
1622433435.5,286046997.9,N
1622433455.3,286046997.8,N
1622433475.1,286046996.9,N
1622433495.9,286046999.5,N
1622433515.7,286046999.2,N
1622433535.6,286046999.0,N
1622433555.4,286046996.6,N
1622433575.2,286046996.5,N
1622433595.1,286046997.1,N
1622433596.0,286046997.1,N
